Precipitable_Water
0.84 0.81 0.79 0.77 0.73 0.68 0.65 0.62 0.60 0.59 0.57 0.56 0.55 0.55 0.54 0.53 0.52 0.53 0.52 0.52 0.51 0.50 0.54 0.53 0.51 0.50 0.48 0.48 0.48 0.48 0.49 0.48 0.47 0.46 0.46 0.44 0.44 0.44 0.44 0.43 0.44 0.43 0.42 0.42 0.41 0.41 0.39 0.38 0.40 0.40 0.39 0.38
0.82 0.79 0.76 0.73 0.69 0.65 0.61 0.58 0.57 0.55 0.53 0.52 0.51 0.49 0.48 0.48 0.48 0.48 0.47 0.46 0.45 0.44 0.43 0.47 0.49 0.48 0.46 0.44 0.43 0.43 0.44 0.44 0.44 0.42 0.42 0.40 0.40 0.40 0.40 0.39 0.40 0.40 0.40 0.40 0.39 0.39 0.36 0.35 0.37 0.37 0.36 0.36
0.79 0.76 0.73 0.70 0.68 0.64 0.60 0.57 0.55 0.53 0.51 0.49 0.48 0.47 0.46 0.45 0.43 0.42 0.41 0.40 0.39 0.38 0.38 0.37 0.41 0.43 0.43 0.41 0.39 0.38 0.38 0.39 0.39 0.37 0.38 0.37 0.35 0.35 0.34 0.33 0.34 0.36 0.36 0.36 0.34 0.33 0.32 0.31 0.32 0.33 0.34 0.34
0.77 0.75 0.72 0.69 0.66 0.63 0.59 0.56 0.53 0.51 0.49 0.47 0.46 0.44 0.42 0.40 0.39 0.38 0.37 0.35 0.35 0.34 0.34 0.34 0.36 0.38 0.38 0.37 0.35 0.34 0.33 0.36 0.36 0.35 0.35 0.34 0.32 0.31 0.29 0.28 0.29 0.31 0.32 0.32 0.30 0.29 0.28 0.28 0.28 0.28 0.29 0.29
0.75 0.74 0.72 0.69 0.65 0.61 0.56 0.53 0.50 0.48 0.46 0.45 0.44 0.42 0.39 0.36 0.33 0.32 0.32 0.32 0.32 0.32 0.32 0.32 0.32 0.33 0.33 0.33 0.33 0.32 0.31 0.32 0.33 0.32 0.32 0.31 0.29 0.26 0.25 0.23 0.23 0.24 0.27 0.28 0.26 0.24 0.24 0.24 0.24 0.25 0.25 0.25
0.75 0.72 0.69 0.67 0.62 0.57 0.54 0.51 0.48 0.44 0.42 0.40 0.39 0.38 0.35 0.33 0.31 0.30 0.30 0.31 0.31 0.31 0.30 0.29 0.30 0.30 0.30 0.29 0.30 0.28 0.27 0.27 0.28 0.27 0.27 0.25 0.24 0.22 0.20 0.19 0.18 0.18 0.19 0.21 0.20 0.19 0.18 0.18 0.19 0.20 0.20 0.20
0.71 0.68 0.66 0.62 0.58 0.54 0.50 0.48 0.45 0.42 0.39 0.36 0.35 0.33 0.31 0.30 0.29 0.28 0.28 0.29 0.29 0.29 0.29 0.28 0.28 0.26 0.25 0.24 0.24 0.21 0.21 0.22 0.21 0.20 0.21 0.20 0.18 0.17 0.16 0.15 0.15 0.15 0.15 0.15 0.16 0.15 0.14 0.15 0.15 0.15 0.15 0.15
0.66 0.63 0.60 0.56 0.54 0.50 0.47 0.45 0.42 0.38 0.35 0.33 0.31 0.30 0.29 0.28 0.27 0.27 0.27 0.28 0.28 0.26 0.25 0.25 0.23 0.21 0.20 0.19 0.19 0.17 0.15 0.16 0.17 0.15 0.15 0.16 0.15 0.14 0.14 0.13 0.13 0.13 0.14 0.14 0.13 0.13 0.12 0.13 0.13 0.13 0.14 0.13
0.59 0.57 0.54 0.53 0.51 0.48 0.44 0.41 0.38 0.35 0.32 0.31 0.29 0.28 0.26 0.25 0.25 0.25 0.25 0.25 0.24 0.23 0.21 0.19 0.18 0.18 0.17 0.16 0.15 0.15 0.13 0.13 0.13 0.12 0.12 0.12 0.12 0.12 0.13 0.12 0.11 0.12 0.12 0.12 0.12 0.11 0.11 0.11 0.11 0.11 0.12 0.12
0.56 0.53 0.51 0.50 0.48 0.44 0.40 0.38 0.35 0.33 0.30 0.29 0.27 0.26 0.24 0.23 0.23 0.23 0.23 0.22 0.20 0.19 0.19 0.17 0.17 0.17 0.16 0.14 0.13 0.13 0.12 0.12 0.12 0.11 0.11 0.11 0.11 0.12 0.12 0.11 0.11 0.11 0.11 0.11 0.11 0.11 0.10 0.10 0.10 0.10 0.10 0.10
0.55 0.52 0.50 0.48 0.44 0.40 0.37 0.36 0.33 0.31 0.29 0.27 0.26 0.25 0.24 0.22 0.22 0.22 0.22 0.21 0.19 0.17 0.18 0.16 0.16 0.16 0.15 0.13 0.12 0.13 0.11 0.11 0.12 0.11 0.11 0.11 0.11 0.12 0.12 0.11 0.11 0.11 0.11 0.11 0.11 0.11 0.10 0.10 0.10 0.10 0.10 0.10
0.51 0.49 0.47 0.44 0.41 0.38 0.36 0.34 0.31 0.30 0.28 0.26 0.24 0.24 0.23 0.22 0.21 0.21 0.20 0.20 0.18 0.17 0.17 0.16 0.16 0.16 0.14 0.13 0.12 0.12 0.11 0.11 0.11 0.11 0.11 0.11 0.11 0.11 0.12 0.11 0.11 0.11 0.11 0.11 0.11 0.10 0.10 0.10 0.10 0.10 0.10 0.10
0.46 0.45 0.43 0.40 0.37 0.35 0.35 0.32 0.30 0.29 0.27 0.25 0.24 0.23 0.22 0.21 0.20 0.20 0.20 0.18 0.17 0.17 0.17 0.16 0.15 0.15 0.13 0.13 0.12 0.12 0.11 0.12 0.11 0.11 0.11 0.11 0.11 0.12 0.11 0.11 0.11 0.11 0.11 0.12 0.12 0.11 0.10 0.10 0.10 0.10 0.10 0.10
0.42 0.40 0.39 0.37 0.35 0.34 0.33 0.30 0.29 0.28 0.26 0.25 0.24 0.22 0.22 0.21 0.20 0.20 0.19 0.17 0.17 0.17 0.16 0.16 0.15 0.14 0.13 0.12 0.12 0.11 0.11 0.12 0.12 0.11 0.11 0.11 0.11 0.11 0.11 0.11 0.11 0.11 0.11 0.11 0.11 0.11 0.10 0.10 0.10 0.11 0.11 0.11
0.40 0.39 0.37 0.35 0.34 0.33 0.31 0.30 0.29 0.27 0.26 0.24 0.23 0.23 0.22 0.21 0.20 0.19 0.19 0.18 0.17 0.17 0.16 0.16 0.15 0.13 0.13 0.12 0.12 0.11 0.11 0.12 0.12 0.12 0.11 0.11 0.11 0.11 0.11 0.11 0.12 0.12 0.11 0.11 0.11 0.11 0.10 0.11 0.10 0.11 0.11 0.11
0.38 0.36 0.35 0.34 0.33 0.31 0.30 0.29 0.27 0.26 0.25 0.23 0.23 0.23 0.22 0.21 0.20 0.20 0.19 0.17 0.17 0.17 0.16 0.15 0.14 0.13 0.12 0.12 0.12 0.12 0.12 0.12 0.13 0.12 0.12 0.12 0.12 0.12 0.12 0.12 0.12 0.12 0.11 0.11 0.11 0.11 0.10 0.11 0.11 0.11 0.11 0.11
0.37 0.36 0.35 0.33 0.31 0.31 0.30 0.28 0.27 0.25 0.24 0.23 0.23 0.23 0.22 0.20 0.20 0.20 0.18 0.17 0.17 0.16 0.16 0.15 0.13 0.12 0.12 0.12 0.11 0.12 0.12 0.12 0.12 0.12 0.12 0.12 0.12 0.12 0.12 0.12 0.12 0.12 0.12 0.11 0.11 0.11 0.11 0.11 0.11 0.11 0.12 0.12
0.35 0.34 0.34 0.33 0.32 0.31 0.29 0.28 0.26 0.25 0.24 0.23 0.23 0.22 0.22 0.21 0.20 0.19 0.18 0.17 0.16 0.16 0.15 0.14 0.13 0.12 0.12 0.12 0.11 0.12 0.12 0.12 0.12 0.12 0.11 0.12 0.11 0.12 0.12 0.12 0.12 0.12 0.12 0.12 0.12 0.12 0.12 0.12 0.12 0.12 0.12 0.12
0.34 0.33 0.32 0.31 0.31 0.30 0.29 0.27 0.26 0.25 0.24 0.23 0.22 0.22 0.21 0.21 0.20 0.18 0.18 0.17 0.16 0.16 0.15 0.14 0.13 0.12 0.12 0.12 0.12 0.12 0.12 0.12 0.12 0.12 0.11 0.12 0.11 0.11 0.12 0.12 0.13 0.13 0.12 0.12 0.12 0.12 0.12 0.12 0.13 0.13 0.13 0.13
0.33 0.32 0.31 0.31 0.30 0.29 0.28 0.27 0.26 0.25 0.24 0.23 0.23 0.22 0.21 0.21 0.19 0.18 0.18 0.18 0.16 0.15 0.15 0.14 0.13 0.12 0.12 0.12 0.12 0.12 0.12 0.12 0.12 0.11 0.11 0.12 0.12 0.11 0.11 0.12 0.12 0.13 0.12 0.12 0.12 0.13 0.13 0.13 0.13 0.13 0.13 0.13
0.32 0.31 0.30 0.29 0.29 0.29 0.28 0.27 0.25 0.25 0.24 0.23 0.22 0.22 0.21 0.21 0.19 0.18 0.18 0.18 0.16 0.16 0.15 0.14 0.13 0.13 0.13 0.12 0.12 0.12 0.12 0.12 0.12 0.12 0.11 0.12 0.12 0.12 0.11 0.12 0.11 0.12 0.12 0.12 0.12 0.13 0.13 0.13 0.13 0.13 0.14 0.14
0.30 0.29 0.29 0.29 0.28 0.28 0.27 0.26 0.26 0.25 0.24 0.22 0.22 0.21 0.21 0.20 0.19 0.18 0.18 0.18 0.17 0.16 0.16 0.15 0.14 0.14 0.13 0.12 0.13 0.13 0.13 0.13 0.13 0.12 0.12 0.12 0.12 0.13 0.12 0.12 0.12 0.12 0.12 0.12 0.12 0.12 0.13 0.13 0.13 0.14 0.14 0.14
0.30 0.29 0.28 0.28 0.27 0.26 0.26 0.25 0.25 0.24 0.23 0.22 0.21 0.21 0.20 0.20 0.20 0.19 0.18 0.18 0.18 0.16 0.16 0.15 0.15 0.14 0.14 0.13 0.13 0.13 0.13 0.13 0.13 0.13 0.13 0.13 0.13 0.14 0.13 0.13 0.13 0.13 0.13 0.13 0.12 0.12 0.12 0.13 0.13 0.14 0.14 0.15
0.27 0.27 0.25 0.24 0.24 0.24 0.23 0.23 0.23 0.23 0.22 0.22 0.21 0.21 0.20 0.20 0.20 0.20 0.19 0.18 0.18 0.17 0.16 0.16 0.15 0.15 0.14 0.14 0.14 0.14 0.14 0.14 0.14 0.14 0.14 0.14 0.14 0.14 0.14 0.15 0.15 0.15 0.14 0.13 0.13 0.13 0.13 0.13 0.13 0.13 0.14 0.14
0.24 0.23 0.22 0.23 0.22 0.20 0.21 0.21 0.22 0.22 0.22 0.21 0.21 0.21 0.21 0.20 0.20 0.20 0.19 0.18 0.18 0.17 0.17 0.17 0.16 0.15 0.15 0.15 0.15 0.15 0.15 0.15 0.16 0.16 0.15 0.15 0.15 0.15 0.15 0.15 0.16 0.15 0.15 0.14 0.13 0.13 0.13 0.13 0.13 0.14 0.14 0.14
0.23 0.23 0.21 0.20 0.19 0.20 0.21 0.21 0.21 0.21 0.21 0.21 0.21 0.21 0.21 0.20 0.20 0.20 0.20 0.19 0.18 0.18 0.18 0.17 0.16 0.16 0.15 0.15 0.15 0.16 0.16 0.16 0.17 0.16 0.16 0.15 0.16 0.16 0.15 0.15 0.16 0.16 0.15 0.14 0.13 0.13 0.13 0.14 0.14 0.14 0.14 0.14
0.23 0.23 0.23 0.23 0.22 0.22 0.21 0.23 0.23 0.23 0.22 0.22 0.22 0.21 0.21 0.21 0.20 0.20 0.20 0.20 0.19 0.18 0.18 0.17 0.17 0.17 0.16 0.16 0.16 0.16 0.16 0.17 0.17 0.17 0.16 0.16 0.16 0.16 0.16 0.16 0.16 0.16 0.17 0.15 0.15 0.15 0.14 0.13 0.13 0.14 0.14 0.16
0.23 0.24 0.24 0.25 0.24 0.24 0.23 0.22 0.23 0.24 0.24 0.23 0.22 0.20 0.21 0.21 0.20 0.20 0.20 0.20 0.19 0.19 0.18 0.18 0.18 0.18 0.17 0.16 0.17 0.17 0.17 0.17 0.17 0.18 0.17 0.17 0.17 0.17 0.16 0.16 0.16 0.17 0.17 0.17 0.16 0.14 0.14 0.14 0.13 0.13 0.13 0.14
0.23 0.23 0.24 0.24 0.24 0.24 0.24 0.24 0.23 0.22 0.22 0.21 0.21 0.21 0.20 0.20 0.21 0.21 0.20 0.20 0.20 0.19 0.19 0.18 0.18 0.18 0.18 0.17 0.18 0.18 0.18 0.18 0.18 0.18 0.18 0.18 0.18 0.17 0.17 0.17 0.17 0.18 0.18 0.18 0.17 0.17 0.15 0.14 0.13 0.13 0.14 0.14
0.23 0.22 0.21 0.21 0.20 0.19 0.19 0.18 0.19 0.18 0.17 0.18 0.18 0.18 0.19 0.21 0.21 0.20 0.20 0.20 0.20 0.20 0.19 0.19 0.19 0.19 0.19 0.18 0.18 0.18 0.18 0.19 0.19 0.19 0.19 0.19 0.19 0.19 0.19 0.19 0.18 0.18 0.19 0.18 0.18 0.18 0.18 0.18 0.16 0.15 0.16 0.15
0.25 0.23 0.22 0.21 0.20 0.19 0.18 0.17 0.17 0.18 0.19 0.19 0.19 0.20 0.20 0.20 0.21 0.21 0.20 0.20 0.20 0.20 0.20 0.20 0.20 0.20 0.20 0.19 0.19 0.19 0.19 0.19 0.19 0.19 0.20 0.20 0.20 0.20 0.20 0.19 0.19 0.19 0.20 0.19 0.19 0.19 0.19 0.18 0.19 0.18 0.17 0.16
Wind_Speed
16 16 16 16 16 17 17 17 17 17 17 17 17 18 18 18 18 19 19 19 19 19 19 19 19 20 20 20 20 20 21 21 21 21 21 21 21 21 21 21 21 21 22 22 22 22 22 22 22 22 22 22
17 17 17 17 17 17 17 18 18 18 18 18 19 19 19 19 19 20 20 20 20 20 20 20 20 20 21 21 21 21 21 21 22 22 22 22 22 22 22 22 22 22 22 22 23 23 23 23 23 23 23 23
18 18 18 18 18 18 18 18 19 19 19 19 19 20 20 20 20 20 21 21 20 20 21 21 21 21 21 21 22 22 22 22 22 22 22 22 22 23 23 23 23 23 23 23 24 24 24 24 24 24 24 24
19 19 18 18 19 19 19 19 19 20 20 20 20 21 21 21 21 21 21 21 21 21 21 21 22 22 21 22 22 22 22 22 22 22 22 23 23 23 23 23 23 24 24 24 24 25 25 25 25 25 25 26
20 20 19 19 20 20 20 20 21 21 21 21 22 22 22 22 22 22 22 22 22 22 22 22 22 22 22 22 22 22 22 22 23 23 23 23 23 23 23 23 24 24 24 24 24 25 25 26 26 26 26 26
21 21 21 21 21 21 21 21 22 22 22 22 23 23 23 23 23 23 23 23 22 22 22 22 22 22 22 22 23 23 23 23 23 23 23 23 24 24 24 24 24 24 24 25 25 25 25 26 26 26 26 27
22 22 22 22 22 22 22 23 23 23 23 23 23 23 23 23 23 23 23 23 23 23 23 23 23 23 23 23 23 23 23 24 24 24 24 24 24 24 24 24 25 25 25 25 25 25 26 26 26 27 27 27
23 23 23 23 23 24 24 24 24 24 24 24 24 24 24 24 23 23 23 23 23 23 23 23 23 23 23 24 24 24 24 24 24 24 25 25 25 25 25 25 25 26 26 26 26 26 26 27 27 27 27 28
25 25 25 25 25 25 25 25 25 25 25 24 24 24 24 24 24 23 23 23 24 23 23 23 24 24 24 24 25 25 25 25 25 25 26 26 26 26 26 26 26 27 27 27 27 27 27 27 28 28 28 28
26 26 26 27 27 26 26 26 25 25 25 25 24 24 24 24 24 24 24 24 24 24 24 24 25 25 25 26 26 26 26 26 26 26 26 27 27 27 27 27 27 28 28 28 28 28 28 28 29 29 29 29
27 28 28 28 27 27 26 26 26 25 25 25 25 25 25 25 25 24 25 25 25 25 25 26 26 26 26 26 26 26 27 27 27 27 27 27 27 27 28 28 28 28 28 29 29 29 29 29 29 29 30 30
28 28 28 28 27 27 27 26 26 26 26 25 26 25 25 25 25 25 25 26 26 26 26 26 26 27 27 27 27 27 27 27 27 27 28 28 28 28 28 28 29 29 29 29 30 30 30 30 30 31 31 31
28 28 28 27 27 27 27 26 26 26 26 26 26 26 26 26 26 26 26 26 26 26 27 27 27 27 27 28 28 28 28 28 28 28 28 29 29 29 29 29 29 30 30 30 30 31 31 31 32 32 32 32
28 27 27 27 27 27 27 26 27 26 26 27 27 27 27 27 27 27 27 27 27 27 28 28 28 28 28 28 29 29 29 29 29 29 29 30 30 30 30 30 30 30 31 31 31 31 32 32 32 33 33 33
27 27 27 27 27 27 27 27 27 27 27 27 27 27 28 28 28 28 28 28 28 29 29 29 29 29 29 29 29 29 30 30 30 30 30 30 30 30 30 31 31 31 31 31 31 32 32 33 33 34 34 34
27 27 27 27 27 27 27 27 28 27 28 28 29 29 29 29 29 29 29 29 30 30 30 30 30 30 30 30 30 30 30 30 30 30 30 30 30 31 31 31 31 31 32 32 32 33 33 33 34 34 35 35
27 28 28 28 28 28 28 28 29 29 29 29 29 30 30 30 30 30 30 30 31 31 31 31 31 31 31 30 30 30 31 31 30 30 31 31 31 31 31 31 32 32 32 33 33 33 34 34 35 35 35 36
28 28 29 29 29 29 30 30 30 30 30 30 30 30 31 31 31 31 31 31 31 31 31 31 31 31 31 31 31 31 31 31 31 31 31 31 31 31 32 32 32 33 33 33 33 34 34 35 35 35 36 36
29 30 30 30 30 30 31 31 31 31 31 31 31 31 31 32 32 32 32 32 32 32 32 32 32 32 31 31 31 31 31 31 31 31 31 31 31 32 32 32 33 33 33 34 34 34 35 35 36 36 36 36
30 30 30 31 31 31 31 31 32 32 32 32 32 32 32 32 33 33 32 32 32 32 32 32 32 32 31 31 31 31 31 31 31 31 31 31 31 32 32 33 33 33 33 33 34 34 35 35 36 36 36 36
30 31 31 31 31 32 32 32 33 33 33 33 33 33 33 33 33 33 33 33 33 33 33 33 32 32 31 31 31 31 31 31 31 31 31 32 32 32 33 33 33 33 33 34 34 34 35 35 36 36 36 36
31 31 31 32 32 32 33 33 33 33 33 33 33 33 33 33 33 33 33 33 33 33 33 32 32 32 31 31 31 31 32 32 32 32 32 33 33 33 33 33 34 34 34 34 35 35 36 36 36 37 37 37
31 31 31 32 32 32 33 33 33 33 33 33 33 33 33 33 33 33 33 33 33 33 33 33 32 32 32 33 33 33 33 33 33 33 33 34 34 34 34 35 35 35 35 36 36 37 37 37 38 38 38 38
30 30 31 31 32 32 33 33 33 33 33 33 33 33 33 33 33 34 34 34 34 34 34 34 34 34 34 34 34 34 35 35 34 34 35 35 35 35 35 36 36 36 36 37 37 38 38 38 39 39 39 39
31 31 31 31 32 32 33 33 33 33 34 34 34 34 34 34 34 35 35 35 35 35 35 35 35 35 35 36 36 36 36 36 36 36 36 36 36 37 37 37 37 37 37 38 38 39 39 39 39 40 40 40
32 32 32 32 33 33 33 33 34 34 34 35 35 35 35 35 35 36 36 36 37 37 37 36 36 37 37 37 37 37 37 37 37 37 37 38 38 38 38 38 38 38 39 39 39 39 40 40 40 40 41 41
32 33 33 33 33 33 34 34 35 35 35 35 36 36 36 36 37 37 37 38 38 38 38 38 38 38 38 38 38 38 38 39 39 39 39 39 39 39 39 40 40 40 40 40 40 40 40 40 40 41 41 41
33 33 33 34 34 34 34 34 35 35 35 36 36 36 37 37 37 37 38 38 39 39 39 39 39 39 39 39 39 39 39 40 40 40 40 40 40 40 40 40 41 41 40 40 40 40 40 41 40 41 41 41
33 33 33 33 33 33 34 34 35 35 35 36 36 37 37 38 38 38 38 39 39 40 40 39 39 39 40 40 40 40 40 41 41 41 41 41 41 41 41 41 41 41 41 41 42 41 41 41 41 42 42 42
33 33 33 34 34 34 34 35 35 36 37 37 37 37 38 38 38 39 39 39 40 41 41 41 40 40 40 41 41 41 41 41 41 42 42 42 42 42 42 42 42 42 42 42 43 43 42 42 42 43 43 43
34 34 35 35 36 36 37 37 37 38 38 39 39 39 39 39 39 40 40 40 41 42 42 42 42 42 42 42 42 42 42 42 42 43 43 43 43 43 43 43 43 43 43 43 44 44 44 44 44 44 43 43
Wind_Direction
252 255 257 260 262 262 263 262 262 263 263 264 265 265 266 267 268 269 270 271 271 272 273 274 274 275 275 276 276 277 277 277 278 278 278 278 277 277 276 276 277 277 277 277 277 276 276 276 275 275 275 275
255 257 259 262 263 264 264 263 263 263 264 265 265 266 267 268 269 270 270 271 271 272 273 274 274 275 275 275 276 276 277 277 277 277 277 277 277 276 276 276 276 276 277 276 276 276 276 276 275 275 275 275
258 260 262 263 264 264 264 263 263 264 264 265 266 267 268 269 270 270 271 271 271 272 273 273 274 274 275 276 276 276 277 277 277 277 277 277 277 277 276 276 276 276 276 276 276 276 276 276 276 276 275 275
259 261 263 263 264 265 264 264 264 265 266 266 267 268 268 269 269 270 270 271 271 272 273 273 274 274 275 276 276 277 278 278 278 278 278 278 278 278 278 278 277 277 277 276 277 277 277 277 276 276 276 276
260 261 263 264 264 265 265 265 265 266 267 268 268 268 269 269 270 270 270 271 271 272 273 273 274 275 276 277 277 278 279 279 279 279 279 279 279 279 279 279 279 279 278 278 278 278 278 278 278 278 277 276
261 262 263 264 264 265 265 265 266 267 268 269 269 270 270 270 271 271 271 271 271 272 273 273 274 276 277 278 278 279 279 279 279 279 280 280 280 280 280 280 280 280 280 279 279 279 279 279 279 279 278 278
261 262 263 264 264 265 265 265 267 268 269 269 270 270 270 270 270 271 271 271 272 272 273 274 275 276 277 278 278 279 279 279 279 279 279 279 280 280 280 280 280 280 280 279 279 280 280 280 279 279 279 279
261 263 264 264 265 265 265 266 267 267 269 269 269 269 269 269 269 269 271 271 272 272 273 274 275 275 276 277 278 278 278 279 279 279 279 279 280 280 280 280 280 280 280 279 279 280 280 280 279 279 279 278
262 263 264 264 265 265 265 265 266 267 268 268 269 268 268 268 268 268 270 271 271 271 272 273 274 275 276 277 278 278 279 279 279 279 279 280 280 280 280 280 281 280 280 280 279 280 280 280 279 279 279 278
262 262 263 264 264 264 264 264 265 266 267 267 268 268 268 268 268 268 269 270 271 272 272 274 275 276 277 278 278 279 279 279 279 279 280 280 280 280 280 280 281 281 280 280 280 280 280 280 280 279 279 278
261 262 263 263 263 263 263 263 264 265 266 267 267 268 268 268 268 268 269 270 271 272 273 275 276 276 277 278 279 279 279 279 279 279 280 280 280 280 280 280 280 281 281 280 280 280 280 280 280 279 279 279
261 262 262 262 262 262 262 263 264 265 266 267 267 268 268 268 268 269 270 270 271 272 273 275 276 276 277 278 278 279 279 279 279 279 279 280 280 280 280 280 280 281 281 281 280 280 281 281 280 280 280 279
261 261 261 261 261 262 262 263 264 265 265 266 268 268 269 269 269 269 270 271 272 273 273 274 275 276 277 277 278 278 278 279 279 279 279 279 280 280 280 280 280 281 281 281 281 281 281 281 281 280 280 280
261 260 260 260 261 261 261 262 263 264 265 266 267 268 269 269 269 269 270 271 272 273 274 274 275 276 277 277 277 278 278 278 278 278 279 279 279 280 280 280 280 281 281 281 281 281 282 282 281 281 281 280
259 259 259 260 260 260 261 261 263 264 265 266 267 268 269 269 269 270 270 271 272 273 274 275 275 276 277 277 277 277 277 278 278 278 279 279 279 280 280 280 280 281 281 281 281 281 282 282 281 281 281 280
258 258 258 259 259 260 260 261 263 264 265 266 267 268 269 269 270 270 270 271 272 273 274 275 275 276 276 277 277 277 277 277 278 278 279 279 280 280 280 281 281 281 281 281 281 281 282 282 281 281 280 280
257 258 258 259 259 260 260 261 263 264 265 266 267 268 269 269 270 270 270 271 272 273 274 274 275 276 276 276 276 277 277 277 278 278 279 279 280 281 281 281 281 281 281 281 281 282 282 281 281 281 280 280
258 258 259 259 260 260 261 262 264 265 266 267 267 268 269 269 270 270 270 271 272 272 273 274 275 275 275 275 276 276 277 277 277 278 279 279 280 281 281 281 281 281 281 281 282 282 282 281 281 281 280 280
258 259 259 260 261 261 262 263 264 265 266 267 268 268 269 269 270 270 270 270 271 272 273 274 274 275 275 275 275 276 276 277 277 278 279 279 279 280 281 281 281 281 281 281 282 282 282 281 281 281 280 280
259 259 260 260 261 262 263 264 265 265 266 267 268 268 269 269 269 269 270 270 271 272 272 273 274 274 274 274 275 275 275 276 277 277 278 279 279 280 281 281 281 281 282 282 282 282 282 282 281 281 281 280
259 260 260 261 262 262 263 264 265 266 266 267 267 268 269 269 269 269 269 270 270 271 272 272 273 273 273 273 274 274 275 276 276 277 278 279 279 280 280 281 281 282 282 282 283 283 282 282 282 281 281 280
260 261 261 262 263 264 264 265 266 266 266 267 267 268 268 268 269 269 269 269 269 270 271 271 272 272 272 272 273 274 275 276 276 277 278 279 279 280 280 281 281 282 282 283 283 283 283 283 283 282 281 280
261 262 263 263 264 265 265 266 266 266 266 266 267 267 268 268 269 269 268 268 269 270 270 271 272 272 272 273 273 274 275 276 276 277 278 279 279 279 280 281 281 281 282 283 283 283 283 283 283 282 281 280
262 262 263 263 264 265 266 266 266 266 266 267 267 268 268 269 269 269 268 268 269 270 270 272 272 272 273 273 274 275 276 276 277 277 278 278 279 279 280 280 281 281 282 283 283 283 284 283 282 282 281 281
260 261 262 263 264 265 266 266 267 267 267 268 268 268 269 269 269 269 269 269 269 270 271 272 273 273 273 273 274 275 276 276 276 277 277 278 279 279 280 280 281 281 282 283 283 283 284 283 282 282 281 281
260 261 263 264 265 266 267 267 268 269 269 269 269 269 269 270 270 270 270 269 269 270 271 272 273 273 273 274 274 275 276 276 276 277 277 278 279 279 280 280 280 280 281 282 283 283 284 284 283 282 282 281
261 262 263 264 266 266 267 268 268 269 270 269 270 270 270 270 270 270 270 269 269 270 271 272 273 273 273 273 274 275 275 276 276 277 277 278 278 279 279 280 280 280 281 282 282 283 283 283 283 283 283 281
262 263 263 265 266 267 268 269 269 270 270 270 270 270 270 269 269 269 270 269 269 270 271 272 272 273 273 273 273 274 275 275 276 276 277 277 277 278 278 279 279 280 280 281 282 282 282 282 282 282 282 281
262 263 264 265 266 267 268 269 269 269 270 270 270 270 270 269 269 269 270 270 270 271 271 272 272 272 273 273 273 274 275 275 276 276 276 276 277 277 278 278 278 279 279 280 280 281 282 282 281 280 281 281
262 263 263 264 265 266 267 268 268 269 269 269 269 270 271 270 270 270 271 271 271 271 271 272 272 272 273 273 273 273 275 275 276 276 276 276 276 277 277 278 278 278 278 279 279 280 281 281 281 281 281 281
263 263 264 264 265 266 267 268 270 270 270 270 271 271 271 271 271 270 271 271 271 271 271 272 272 272 272 273 273 273 274 275 276 276 276 276 277 277 277 278 278 277 278 278 279 279 280 280 281 281 281 280